{"data":{"norad_id":69015,"intl_designator":"2026-100AM","name":"FRONTIERSAT","alt_names":[],"object_type":"PAYLOAD","status":"ACTIVE","operator":null,"country":"CA","launch_date":"2026-05-03","launch_site_code":"AFWTR","launch_vehicle":null,"mission":null,"orbit_class":"UNKNOWN","rcs_meters":null,"size_class":null,"mass_kg":null,"dimensions":null,"purposes":[],"wikipedia_slug":null,"has_3d_model":false,"image_url":null,"decayed_at":null,"tle_current":{"epoch":"2026-09-20T04:05:02.520384Z","epoch_age_seconds":47550,"freshness":"FRESH","line1":"1 69015U 26100AM  26263.17016806  .00005167  00000+0  22259-3 0  9999","line2":"2 69015  97.3859 159.4782 0009871  73.4169 286.8151 15.22978971 21279","mean_motion":15.22978971,"eccentricity":0.0009871,"inclination_deg":97.3859,"raan_deg":159.4782,"arg_perigee_deg":73.4169,"mean_anomaly_deg":286.8151,"bstar":0.00022259,"rev_number":2127,"period_min":94.55153534093,"perigee_km":490.07459477949,"apogee_km":503.64721564396,"semimajor_km":6874.9979052117,"source":"CELESTRAK","updated_at":"2026-09-20T09:00:24.630387Z"}}}